Tracking 30743 objects as of 21-Jun-2025
HD Live streaming from Space Station
objects crossing your sky now

STARLINK-2418

Track STARLINK-2418 now!
10-day predictions
STARLINK-2418 is classified as:


NORAD ID: 48097
Int'l Code: 2021-027F
Perigee: 553.5 km
Apogee: 555.2 km
Inclination: 53.1 °
Period: 95.6 minutes
Semi major axis: 6925 km
RCS: Unknown
Launch date: April 7, 2021
Source: United States (US)
Launch site: AIR FORCE EASTERN TEST RANGE (AFETR)
Your satellite tracking list
Your tracking list is empty




NASA's NSSDC Master Catalog

Two Line Element Set (TLE):
1 48097U 21027F   25171.92355970  .00005662  00000-0  39870-3 0  9995
2 48097  53.0539 246.7315 0001274  91.4670 268.6465 15.06400146232847
Source of the keplerian elements: AFSPC